| time (UTC) | temp C | wind direction | speed KPH | gust KPH | rain 1hr cm | rain 24hr cm | rain mn cm | humidity % | barometer mb |
| 20260904071603 | 24 | 156 | 0.0 | 0.0 | 0.00 | 0.23 | 0.00 | 90 | 1006.5 |
| 20260904064555 | 25 | 170 | 0.0 | 0.0 | 0.00 | 0.23 | 0.00 | 89 | 1006.4 |
| 20260904063112 | 25 | 171 | 0.0 | 0.0 | 0.00 | 0.23 | 0.00 | 88 | 1006.5 |
| 20260904061553 | 25 | 153 | 0.0 | 0.0 | 0.00 | 0.23 | 0.00 | 88 | 1006.4 |
| 20260904060054 | 25 | 169 | 0.0 | 0.0 | 0.00 | 0.23 | 0.00 | 87 | 1006.5 |
| 20260904054550 | 25 | 147 | 0.0 | 0.0 | 0.00 | 0.23 | 0.00 | 87 | 1006.4 |
| 20260904053058 | 25 | 175 | 0.0 | 0.0 | 0.00 | 0.23 | 0.00 | 86 | 1006.5 |
| 20260904051544 | 25 | 157 | 0.0 | 0.0 | 0.00 | 0.23 | 0.00 | 85 | 1006.3 |
| 20260904050042 | 25 | 144 | 0.0 | 0.0 | 0.00 | 0.23 | 0.23 | 85 | 1006.2 |
| 20260904044542 | 25 | 165 | 0.0 | 0.0 | 0.00 | 0.23 | 0.23 | 84 | 1006.2 |
| 20260904043011 | 25 | 175 | 0.0 | 0.0 | 0.00 | 0.23 | 0.23 | 83 | 1006.3 |
| 20260904041510 | 25 | 163 | 0.0 | 0.0 | 0.00 | 0.23 | 0.23 | 83 | 1006.1 |
| 20260904040012 | 25 | 167 | 0.0 | 0.0 | 0.00 | 0.23 | 0.23 | 82 | 1006.2 |
| 20260904034507 | 25 | 150 | 0.0 | 0.0 | 0.00 | 0.23 | 0.23 | 82 | 1006.1 |
| 20260904033008 | 25 | 148 | 0.0 | 0.0 | 0.00 | 0.23 | 0.23 | 81 | 1006.2 |
| 20260904031506 | 26 | 144 | 0.0 | 0.0 | 0.00 | 0.23 | 0.23 | 81 | 1006.2 |
| 20260904030004 | 26 | 138 | 0.0 | 0.0 | 0.00 | 0.23 | 0.23 | 81 | 1006.4 |
| 20260904024604 | 26 | 138 | 0.0 | 0.0 | 0.00 | 0.23 | 0.23 | 80 | 1006.2 |
| 20260904023032 | 26 | 138 | 0.0 | 0.0 | 0.00 | 0.23 | 0.23 | 80 | 1006.3 |
| 20260904021546 | 26 | 119 | 0.0 | 0.0 | 0.00 | 0.23 | 0.23 | 79 | 1006.2 |
| 20260904020030 | 26 | 105 | 0.0 | 0.0 | 0.00 | 0.23 | 0.23 | 77 | 1006.1 |
| 20260904014529 | 27 | 121 | 0.0 | 0.0 | 0.00 | 0.23 | 0.23 | 76 | 1006.0 |
| 20260904013028 | 27 | 146 | 0.0 | 0.0 | 0.00 | 0.23 | 0.23 | 75 | 1005.7 |
| 20260904011528 | 27 | 110 | 0.0 | 0.0 | 0.00 | 0.23 | 0.23 | 74 | 1005.5 |
| 20260904010058 | 27 | 131 | 0.0 | 0.0 | 0.00 | 0.23 | 0.23 | 73 | 1005.5 |
| 20260904004557 | 28 | 136 | 0.0 | 0.0 | 0.00 | 0.23 | 0.23 | 70 | 1005.4 |
| 20260904003054 | 28 | 141 | 0.0 | 0.0 | 0.00 | 0.23 | 0.23 | 68 | 1005.4 |
| 20260904001553 | 28 | 139 | 0.0 | 0.0 | 0.00 | 0.23 | 0.23 | 67 | 1005.5 |
| 20260904000053 | 28 | 142 | 0.0 | 0.0 | 0.00 | 0.23 | 0.23 | 66 | 1005.7 |
| 20260903234553 | 29 | 144 | 0.0 | 0.0 | 0.00 | 0.23 | 0.23 | 65 | 1005.6 |
| 20260903233034 | 29 | 205 | 0.0 | 0.0 | 0.00 | 0.23 | 0.23 | 64 | 1005.7 |
| 20260903231538 | 29 | 161 | 0.0 | 0.0 | 0.00 | 0.23 | 0.23 | 63 | 1005.4 |
| 20260903230019 | 30 | 147 | 0.0 | 0.0 | 0.00 | 0.23 | 0.23 | 62 | 1004.9 |
| 20260903224519 | 30 | 142 | 0.0 | 0.0 | 0.00 | 0.23 | 0.23 | 62 | 1004.8 |
| 20260903223018 | 29 | 155 | 0.0 | 0.0 | 0.00 | 0.23 | 0.23 | 63 | 1004.5 |
| 20260903221516 | 30 | 144 | 0.0 | 0.0 | 0.00 | 0.23 | 0.23 | 63 | 1004.9 |
| 20260903220011 | 30 | 103 | 0.0 | 0.0 | 0.00 | 0.23 | 0.23 | 63 | 1005.1 |
| 20260903214509 | 29 | 144 | 0.0 | 0.0 | 0.00 | 0.23 | 0.23 | 63 | 1005.4 |
| 20260903213008 | 29 | 150 | 0.0 | 0.0 | 0.00 | 0.23 | 0.23 | 63 | 1005.3 |
| 20260903211506 | 28 | 121 | 0.0 | 0.0 | 0.00 | 0.23 | 0.23 | 64 | 1005.2 |
| 20260903210002 | 28 | 130 | 0.0 | 0.0 | 0.00 | 0.23 | 0.23 | 64 | 1005.3 |
| 20260903204607 | 28 | 165 | 0.0 | 0.0 | 0.00 | 0.23 | 0.23 | 66 | 1005.6 |
| 20260903203100 | 28 | 148 | 0.0 | 0.0 | 0.00 | 0.23 | 0.23 | 65 | 1005.4 |
| 20260903201558 | 28 | 174 | 0.0 | 0.0 | 0.00 | 0.23 | 0.23 | 64 | 1005.7 |
| 20260903200027 | 28 | 175 | 0.0 | 0.0 | 0.00 | 0.23 | 0.23 | 64 | 1006.2 |
| 20260903194533 | 28 | 101 | 0.0 | 0.0 | 0.00 | 0.23 | 0.23 | 69 | 1006.1 |
| 20260903193056 | 26 | 158 | 0.0 | 0.0 | 0.18 | 0.23 | 0.23 | 81 | 1006.0 |
| 20260903191601 | 25 | 115 | 0.0 | 0.0 | 0.23 | 0.23 | 0.23 | 86 | 1006.3 |
| 20260903190053 | 25 | 78 | 0.0 | 0.0 | 0.23 | 0.23 | 0.23 | 88 | 1005.9 |
| 20260903184550 | 25 | 78 | 0.0 | 0.0 | 0.23 | 0.23 | 0.23 | 83 | 1006.1 |
| 20260903183052 | 26 | 102 | 0.0 | 0.0 | 0.05 | 0.05 | 0.05 | 76 | 1006.1 |
| 20260903181547 | 27 | 150 | 0.0 | 0.0 | 0.00 | 0.00 | 0.00 | 67 | 1006.2 |
| 20260903180045 | 27 | 103 | 0.0 | 0.0 | 0.00 | 0.00 | 0.00 | 64 | 1006.9 |
| 20260903174543 | 27 | 107 | 0.0 | 0.0 | 0.00 | 0.00 | 0.00 | 65 | 1006.8 |
| 20260903173041 | 28 | 165 | 0.0 | 0.0 | 0.00 | 0.00 | 0.00 | 64 | 1006.8 |
| 20260903171550 | 28 | 171 | 0.0 | 0.0 | 0.00 | 0.00 | 0.00 | 61 | 1007.1 |
| 20260903170043 | 28 | 91 | 0.0 | 0.0 | 0.00 | 0.00 | 0.00 | 63 | 1007.2 |
| 20260903164533 | 27 | 108 | 0.0 | 0.0 | 0.00 | 0.00 | 0.00 | 64 | 1007.5 |
| 20260903163037 | 27 | 131 | 0.0 | 0.0 | 0.00 | 0.00 | 0.00 | 66 | 1007.3 |
| 20260903161528 | 26 | 126 | 0.0 | 0.0 | 0.00 | 0.00 | 0.00 | 66 | 1007.5 |
| 20260903160024 | 27 | 117 | 0.0 | 0.0 | 0.00 | 0.00 | 0.00 | 65 | 1007.4 |
| 20260903154523 | 26 | 107 | 0.0 | 0.0 | 0.00 | 0.00 | 0.00 | 66 | 1007.5 |
| 20260903153020 | 26 | 109 | 0.0 | 0.0 | 0.00 | 0.00 | 0.00 | 68 | 1007.6 |
| 20260903151517 | 26 | 126 | 0.0 | 0.0 | 0.00 | 0.00 | 0.00 | 70 | 1007.6 |
| 20260903150020 | 26 | 142 | 0.0 | 0.0 | 0.00 | 0.00 | 0.00 | 68 | 1007.5 |
| 20260903144514 | 26 | 111 | 0.0 | 0.0 | 0.00 | 0.00 | 0.00 | 69 | 1007.5 |
| 20260903143011 | 25 | 139 | 0.0 | 0.0 | 0.00 | 0.00 | 0.00 | 71 | 1007.3 |
| 20260903141515 | 25 | 119 | 0.0 | 0.0 | 0.00 | 0.00 | 0.00 | 73 | 1007.6 |
| 20260903140006 | 25 | 76 | 0.0 | 0.0 | 0.00 | 0.00 | 0.00 | 75 | 1007.6 |
| 20260903134535 | 25 | 81 | 0.0 | 0.0 | 0.00 | 0.00 | 0.00 | 77 | 1007.7 |
| 20260903133034 | 24 | 136 | 0.0 | 0.0 | 0.00 | 0.00 | 0.00 | 81 | 1007.6 |
| 20260903131609 | 23 | 137 | 0.0 | 0.0 | 0.00 | 0.00 | 0.00 | 84 | 1007.8 |
| 20260903130100 | 23 | 144 | 0.0 | 0.0 | 0.00 | 0.00 | 0.00 | 85 | 1007.9 |
| 20260903124611 | 22 | 165 | 0.0 | 0.0 | 0.00 | 0.00 | 0.00 | 85 | 1007.3 |
| 20260903123056 | 22 | 169 | 0.0 | 0.0 | 0.00 | 0.00 | 0.00 | 86 | 1007.0 |
| 20260903121555 | 22 | 169 | 0.0 | 0.0 | 0.00 | 0.00 | 0.00 | 86 | 1006.9 |
| 20260903120101 | 22 | 115 | 0.0 | 0.0 | 0.00 | 0.00 | 0.00 | 87 | 1007.1 |
| 20260903114550 | 22 | 161 | 0.0 | 0.0 | 0.00 | 0.00 | 0.00 | 88 | 1007.4 |
| 20260903113056 | 22 | 175 | 0.0 | 0.0 | 0.00 | 0.00 | 0.00 | 89 | 1007.7 |
| 20260903111549 | 22 | 121 | 0.0 | 0.0 | 0.00 | 0.00 | 0.00 | 89 | 1007.6 |
| 20260903110049 | 22 | 178 | 0.0 | 0.0 | 0.00 | 0.00 | 0.00 | 89 | 1007.4 |
| 20260903104518 | 22 | 163 | 0.0 | 0.0 | 0.00 | 0.00 | 0.00 | 89 | 1007.9 |
| 20260903103017 | 22 | 138 | 0.0 | 0.0 | 0.00 | 0.00 | 0.00 | 88 | 1007.9 |
| 20260903101535 | 22 | 119 | 0.0 | 0.0 | 0.00 | 0.00 | 0.00 | 88 | 1007.6 |
| 20260903100013 | 22 | 103 | 0.0 | 0.0 | 0.00 | 0.00 | 0.00 | 88 | 1007.6 |
| 20260903094513 | 22 | 86 | 0.0 | 0.0 | 0.00 | 0.00 | 0.00 | 88 | 1007.8 |
| 20260903093013 | 22 | 100 | 0.0 | 0.0 | 0.00 | 0.00 | 0.00 | 88 | 1007.4 |
| 20260903091510 | 22 | 113 | 0.0 | 0.0 | 0.00 | 0.00 | 0.00 | 87 | 1007.4 |
| 20260903090010 | 22 | 113 | 0.0 | 0.0 | 0.00 | 0.00 | 0.00 | 87 | 1007.5 |
| 20260903084523 | 22 | 113 | 0.0 | 0.0 | 0.00 | 0.00 | 0.00 | 86 | 1007.5 |
| 20260903083017 | 22 | 101 | 0.0 | 0.0 | 0.00 | 0.00 | 0.00 | 86 | 1007.5 |
| 20260903081503 | 23 | 121 | 0.0 | 0.0 | 0.00 | 0.00 | 0.00 | 86 | 1007.8 |
| 20260903080002 | 22 | 123 | 0.0 | 0.0 | 0.00 | 0.00 | 0.00 | 86 | 1007.9 |
| 20260903074606 | 23 | 76 | 0.0 | 0.0 | 0.00 | 0.00 | 0.00 | 85 | 1008.0 |
| 20260903073059 | 23 | 76 | 0.0 | 0.0 | 0.00 | 0.00 | 0.00 | 85 | 1007.9 |